Location: Newark
(41.0400°S, 62.7845°W)
Time: 23:50:55
(UTC+00:00)

Vanguard 2 - Pass Details

Date: 08 December 2021
Orbit: 554 x 2935 km, 32.9° (Epoch: 27 January)

Event Time Altitude Azimuth Distance (km) Brightness Sun altitude
Rises 23:43:39 0° 355° (N) 5,735 11.7 -2.3°
Reaches altitude 10° 23:49:16 10° 13° (NNE) 5,134 11.3 -3.2°
Maximum altitude 23:57:57 17° 47° (NE) 4,961 11.0 -4.5°
Drops below altitude 10° 00:07:29 10° 81° (E) 5,772 11.4 -6.0°
Sets 00:14:22 0° 96° (E) 6,753 11.9 -7.0°
